Location: Unspecified
(40.7945°N, 0.0000°E)
Time: 20:33:15
(UTC+00:00)

Explorer 7 - Pass Details

Date: 22 June 2021
Orbit: 484 x 676 km, 50.3° (Epoch: 30 July)

Event Time Altitude Azimuth Distance (km) Brightness Sun altitude
Rises 03:24:33 0° 293° (WNW) 2,913 10.3 -10.4°
Reaches altitude 10° 03:27:23 10° 278° (W) 1,966 9.3 -10.0°
Maximum altitude 03:30:43 21° 230° (SW) 1,351 8.2 -9.6°
Drops below altitude 10° 03:33:56 10° 181° (S) 1,863 9.1 -9.1°
Sets 03:36:32 0° 164° (SSE) 2,716 10.1 -8.7°
